Retour au catalogue

STARLINK-32882

ActifCommunicationsVLEO
NORAD 62963·PAYLOAD·🇺🇸 United States

Lancé Feb 11, 2025 depuis Vandenberg Space Force Base

Loading…

Prochains Passages (prochaines 24 heures)

TLE

FraisSource: CelesTrak SupGP

Époque: Sep 14, 2026, 22:58 UTC

1 62963C 25029R   26257.95743056  .00038728  00000+0  11445-2 0  2576
2 62963  53.1576  67.3304 0001227  78.1235 146.6324 15.34363525    10

Suivez STARLINK-32882 en temps réel avec AllMySat

Download on the App Store